Tracking 31027 objects as of 19-Jul-2025
HD Live streaming from Space Station
objects crossing your sky now

FALCON 9 R/B

Track FALCON 9 R/B now!


NORAD ID: 52818
Int'l Code: 2022-061B
Perigee: 354.0 km
Apogee: 43,682.3 km
Inclination: 18.3 °
Period: 793.4 minutes
Semi major axis: 28389 km
RCS: Unknown
Launch date: June 8, 2022
Source: United States (US)
Launch site: AIR FORCE EASTERN TEST RANGE (AFETR)

Note: This is a ROCKET BODY
Your satellite tracking list
FLOCK 3S 1
Track 1 satellite(s)




NASA's NSSDC Master Catalog

Two Line Element Set (TLE):
1 52818U 22061B   25198.65344474  .00001123  00000-0  26707-2 0  9998
2 52818  18.3279  70.9499 7631128  72.3300 351.7750  1.81499030 20237
Source of the keplerian elements: AFSPC